RH
46 54 80 86 87 89 79 80 78 79 76 82 82 76 76 80 80 80 79 79 81 78 72 73 73 73 70 70 73 75 78 78 76 78 83 81 77 72 70 71 72 59 72
46 46 72 84 86 88 92 81 77 78 80 80 81 78 77 78 78 79 78 77 75 73 69 73 73 68 70 72 74 74 75 84 84 88 87 87 82 75 68 71 76 64 70
40 42 51 74 83 86 87 87 89 78 81 82 81 77 77 77 76 79 77 77 77 76 74 76 75 74 76 79 79 78 78 84 87 89 86 63 63 72 64 69 75 72 71
37 43 51 66 73 82 85 87 89 88 77 82 82 81 79 76 76 77 77 78 80 79 78 79 80 80 83 82 78 77 80 86 88 87 63 61 58 71 62 63 68 68 70
38 40 49 65 68 70 78 83 86 88 90 86 83 82 81 79 76 75 79 80 82 82 81 83 82 81 84 82 77 77 84 86 88 73 64 68 68 61 62 62 63 64 67
39 41 53 65 67 68 68 72 83 86 88 89 90 84 82 80 79 78 80 83 84 85 84 84 83 84 84 81 79 82 84 87 83 65 62 66 62 62 62 65 59 62 69
38 41 49 63 66 68 68 66 70 79 85 88 90 89 82 79 80 79 80 84 85 85 85 84 83 85 85 82 79 82 85 88 64 62 61 57 62 66 59 61 61 67 66
39 40 46 57 64 65 67 66 65 68 78 83 88 91 92 80 82 80 82 84 86 82 86 83 84 86 86 84 82 83 87 84 67 65 65 61 68 66 62 60 62 70 70
39 42 44 50 56 63 65 63 66 68 67 76 86 91 93 90 86 82 86 86 82 85 83 85 86 86 86 85 85 85 87 84 63 66 64 69 71 62 60 59 60 70 76
36 44 45 48 51 51 58 60 68 68 69 70 77 88 92 91 94 88 89 83 80 85 85 85 87 86 86 86 87 88 88 83 54 62 63 63 67 60 56 61 62 72 76
37 44 46 51 50 53 45 51 71 72 72 74 76 83 88 85 85 76 82 85 82 85 82 84 87 84 88 90 90 90 82 56 53 58 58 74 67 66 54 62 70 78 75
40 43 45 52 53 51 42 53 59 61 74 76 80 82 83 88 89 86 88 95 84 83 85 82 85 90 83 76 76 82 59 57 54 58 56 74 67 61 57 58 75 79 76
41 44 48 52 54 54 54 58 57 62 77 80 79 83 81 89 94 91 91 94 90 90 82 80 88 72 71 75 72 64 62 59 63 57 62 77 65 58 61 62 69 74 74
43 44 48 52 55 55 60 58 58 62 68 77 81 82 87 93 95 93 93 91 92 85 87 86 81 78 68 75 70 65 62 63 63 58 66 82 80 70 60 60 68 71 72
42 46 50 52 56 55 57 60 60 67 72 76 79 78 84 88 92 95 95 92 90 86 83 82 80 77 70 72 73 60 63 64 66 61 58 83 80 71 67 65 59 58 69
40 48 51 56 53 58 62 62 63 64 72 75 78 80 75 84 92 95 94 94 91 83 79 79 77 78 71 73 77 67 63 66 66 63 68 61 81 75 66 58 61 61 60
44 50 54 52 51 62 65 63 67 71 68 78 78 74 73 74 86 91 96 95 91 90 86 80 81 74 71 68 74 76 68 64 67 65 62 54 56 81 74 71 71 76 64
44 48 53 52 59 63 65 67 64 70 73 76 78 80 75 72 77 92 96 90 90 90 93 85 82 83 76 76 80 76 70 64 64 64 62 53 55 74 77 84 75 77 74
47 50 53 54 58 64 66 70 71 71 76 76 78 83 77 81 81 92 93 93 91 90 93 88 88 81 81 79 79 77 76 69 69 66 62 57 73 75 68 86 84 80 76
49 49 52 51 56 62 68 68 66 69 75 76 78 79 72 73 76 89 92 91 93 91 94 94 93 85 78 78 75 83 83 73 80 74 66 58 66 65 62 68 80 69 80
47 49 53 59 56 62 68 72 74 76 77 77 77 72 68 72 68 81 91 93 92 90 90 93 93 89 90 79 83 95 94 88 87 88 84 71 75 65 65 67 79 76 59
57 57 63 59 58 62 71 72 76 76 74 77 78 75 71 69 79 82 90 95 92 92 89 90 90 94 88 79 77 87 98 96 87 88 88 75 72 68 66 67 74 82 70
73 73 63 71 67 66 72 74 73 71 72 75 77 78 74 69 76 82 83 90 94 88 90 92 92 84 89 84 70 66 97 94 95 89 88 80 75 67 62 66 66 85 79
84 73 80 73 75 65 72 78 80 80 79 76 76 79 77 70 74 78 83 86 93 89 87 88 88 85 78 90 77 60 66 71 81 98 92 84 74 70 66 69 65 78 82
90 90 86 85 81 78 82 80 82 82 78 74 77 77 77 74 73 79 82 87 93 91 88 86 86 88 76 80 80 76 73 70 67 75 95 98 87 80 77 65 65 65 80
88 91 88 88 83 86 88 86 83 83 80 78 78 80 81 81 81 79 82 88 92 92 86 84 83 83 80 75 75 70 69 76 73 72 70 93 84 78 78 69 68 68 69
Wind_Speed
18 21 35 36 38 35 12 4 5 4 2 6 13 14 14 13 13 15 13 11 10 10 11 13 15 15 17 15 15 16 15 14 14 14 15 16 18 19 18 15 13 16 17
16 18 29 34 36 33 34 22 3 4 4 5 9 13 14 14 12 15 14 13 13 12 12 12 15 15 17 16 15 15 16 15 15 14 13 13 15 18 17 15 13 15 15
16 17 20 32 32 33 34 31 31 6 6 7 7 11 13 15 14 13 14 14 13 12 13 14 14 14 16 16 15 15 16 15 15 13 10 11 14 17 17 16 14 15 16
16 16 18 30 32 32 32 31 32 31 10 8 9 11 12 14 14 13 13 12 12 13 12 14 14 14 15 16 15 15 16 15 13 8 10 10 12 15 15 15 14 14 16
15 16 17 29 29 30 31 30 30 30 28 21 9 10 12 12 13 13 12 12 9 11 13 13 14 15 15 15 16 16 14 13 11 10 11 10 7 11 14 14 13 13 14
16 17 18 28 29 29 30 29 29 29 29 29 24 11 12 13 13 13 13 12 10 10 12 13 16 16 16 14 16 16 14 12 9 11 11 11 10 15 15 12 13 11 13
14 15 15 26 27 28 29 29 29 28 28 28 27 23 14 14 13 13 14 12 12 15 16 16 16 17 16 16 17 16 15 11 10 10 10 10 10 12 15 13 12 12 13
13 15 15 21 25 26 26 26 28 28 27 28 27 25 23 15 14 14 13 14 14 18 18 18 15 17 16 16 16 15 14 12 10 10 9 9 10 11 13 12 8 14 11
13 15 15 16 18 23 25 24 27 26 25 25 26 26 23 18 13 15 14 14 17 18 20 19 17 15 17 16 15 13 11 11 11 8 8 6 13 9 11 9 9 10 10
15 15 15 16 16 16 14 21 25 25 25 24 22 23 25 18 17 14 12 17 18 17 20 20 21 18 18 14 13 12 11 10 10 9 6 6 13 10 10 10 8 8 12
13 15 16 16 17 17 16 15 19 23 25 23 19 19 18 10 13 14 13 10 16 19 19 21 21 20 16 13 12 12 8 5 8 6 6 10 14 10 8 8 8 13 16
18 16 14 16 17 16 13 15 13 13 11 12 12 12 9 13 10 16 10 12 17 17 17 19 19 19 15 8 7 9 4 7 6 7 7 13 13 12 9 5 9 14 16
15 14 16 15 15 16 13 11 7 7 8 9 13 11 11 9 8 9 6 6 8 11 9 12 12 10 14 8 8 7 7 7 4 5 8 12 13 14 14 7 7 12 15
14 14 16 17 15 14 11 10 11 9 9 8 10 13 8 6 9 11 6 8 7 7 9 9 7 10 13 10 11 10 8 6 5 4 8 12 9 15 14 11 6 11 13
13 14 15 15 14 14 14 11 11 11 9 11 11 12 9 8 9 11 9 6 8 8 9 9 10 10 11 11 9 12 10 7 8 5 5 10 11 12 12 10 5 7 10
14 14 14 15 14 14 12 14 11 11 11 10 10 11 14 10 9 8 11 10 7 9 10 10 11 10 10 10 10 11 10 9 9 8 5 7 10 9 12 12 13 13 10
12 12 13 14 16 15 15 13 11 11 11 11 10 14 15 13 12 12 12 11 10 9 11 11 10 11 10 9 12 9 10 11 9 8 8 7 7 6 9 10 11 14 13
11 12 12 11 13 14 15 12 11 11 11 11 11 10 14 15 15 11 11 11 11 11 10 11 11 10 10 10 10 8 8 9 11 10 8 7 6 4 3 3 10 14 14
11 12 13 14 14 15 14 12 12 14 11 11 11 10 14 14 16 12 10 12 14 12 12 10 10 11 10 10 10 9 8 8 9 8 10 9 6 4 3 4 6 9 8
8 10 12 12 13 15 12 11 10 10 10 10 11 11 16 12 15 13 11 16 13 13 11 12 12 11 11 11 10 9 7 8 6 8 9 8 7 7 5 4 4 6 9
9 10 12 13 14 11 11 11 10 10 11 11 11 16 17 15 17 15 11 15 16 16 17 15 12 14 10 11 10 8 4 5 6 6 7 8 7 7 5 4 3 4 6
10 11 12 13 13 11 10 10 10 11 12 13 12 15 16 16 15 15 13 12 15 13 17 18 17 9 8 13 11 10 6 2 3 4 5 7 10 7 6 6 4 5 6
9 10 11 13 13 12 14 10 10 11 11 11 11 11 12 15 15 15 15 14 16 17 15 17 14 19 11 13 16 9 7 6 7 3 5 6 8 7 8 7 7 5 5
9 10 11 12 13 12 14 12 15 12 14 11 13 13 14 17 15 16 17 15 15 16 19 17 19 18 15 15 12 8 9 9 9 5 3 4 6 8 10 7 7 6 5
7 9 10 11 12 13 13 13 12 14 12 12 12 19 17 15 14 15 17 17 16 15 20 22 21 19 15 15 12 9 7 9 10 9 6 4 1 4 5 8 8 8 6
8 8 9 10 13 11 12 14 15 17 16 14 14 13 13 10 8 14 17 17 17 15 20 21 23 23 16 16 13 11 11 11 12 9 9 6 10 7 6 7 7 7 8
Wind_Direction
347 350 352 357 5 360 300 244 185 170 150 147 166 161 159 158 160 156 156 152 146 147 134 135 144 128 126 124 119 112 106 101 103 99 92 93 93 88 82 71 74 74 71
339 348 352 1 11 7 12 350 222 189 171 157 176 167 167 166 173 166 165 160 157 153 143 138 143 136 130 126 114 113 111 97 100 93 91 89 88 88 84 76 69 77 78
347 349 345 4 10 10 13 5 7 239 187 174 187 176 179 178 183 183 167 167 165 162 152 141 140 133 126 121 119 118 112 107 103 99 102 97 94 90 86 78 75 76 83
351 352 345 4 8 9 10 9 13 9 310 206 201 195 191 190 190 195 177 178 179 166 158 148 142 127 128 119 121 119 115 109 103 99 103 101 94 89 86 85 84 78 79
357 358 352 2 4 8 7 8 6 8 4 341 224 216 204 202 203 202 193 189 180 172 155 149 141 129 123 125 128 123 114 107 95 104 98 89 79 82 85 91 95 80 85
359 3 359 2 2 4 4 4 6 2 0 358 347 229 217 212 206 205 207 191 181 168 154 152 144 135 133 132 130 122 115 103 112 107 101 94 87 105 99 89 99 91 84
2 5 3 4 2 2 1 358 1 2 358 358 354 335 230 214 208 206 211 194 190 162 157 158 148 138 137 141 135 128 120 106 114 110 107 101 97 93 99 94 90 93 95
3 4 7 5 3 359 359 356 355 356 357 351 351 349 331 227 213 202 207 203 194 170 162 158 150 145 143 144 141 135 127 120 118 110 111 107 97 94 101 101 98 87 89
10 5 7 4 0 359 355 356 353 349 353 347 347 345 342 316 226 212 202 207 199 174 161 157 156 158 153 149 144 135 128 124 121 121 123 117 107 103 104 117 108 87 95
8 4 4 2 357 357 347 354 349 346 346 344 343 345 335 333 308 227 221 207 194 181 170 164 160 162 154 147 146 134 127 124 125 117 123 112 106 117 102 130 124 106 107
7 4 1 0 359 355 346 351 347 344 343 336 337 341 337 325 329 260 232 216 197 187 182 169 165 158 139 134 137 123 139 145 139 131 130 109 108 116 114 155 114 122 108
357 357 3 357 353 352 349 347 343 342 332 328 323 322 337 312 303 302 233 210 195 193 184 174 155 132 136 143 135 123 151 147 136 138 132 122 128 134 130 150 80 114 107
346 350 355 354 351 349 347 341 340 339 328 324 320 321 316 313 294 289 225 204 196 186 187 177 145 154 150 147 149 150 156 140 142 152 147 128 150 151 143 152 84 105 108
346 347 346 348 347 347 342 338 332 330 324 315 311 309 314 303 294 296 222 190 186 184 177 151 154 160 156 149 143 149 155 143 151 154 132 123 115 135 132 160 117 104 109
346 343 343 342 343 342 340 332 327 323 318 310 305 301 302 295 293 312 208 191 188 184 166 162 160 162 160 151 140 151 150 153 149 146 139 126 122 128 129 145 144 123 104
343 341 339 338 339 336 333 327 320 314 308 304 299 294 297 295 291 282 243 192 189 192 170 169 167 166 162 158 145 150 154 152 155 150 131 129 137 129 158 159 168 165 156
330 329 332 331 333 331 325 322 314 304 304 297 294 295 291 285 280 275 277 186 180 188 175 170 164 165 159 161 149 148 157 157 154 151 142 145 147 165 180 189 158 182 159
323 330 327 325 327 326 320 314 310 302 298 291 290 289 287 285 278 281 286 214 186 182 182 171 166 160 161 159 142 153 160 165 155 154 151 156 159 165 128 134 169 135 137
322 322 322 325 326 326 316 311 305 299 293 291 287 285 290 293 295 275 253 233 187 184 175 172 169 168 164 160 152 150 160 169 167 158 162 165 154 158 132 128 93 123 127
307 319 323 325 322 326 318 310 305 297 290 291 292 286 290 283 284 277 265 269 183 181 173 175 166 168 170 161 153 144 158 162 177 163 168 166 172 161 139 155 156 146 142
320 324 330 324 323 326 320 314 308 306 298 290 287 287 288 281 274 273 264 280 184 188 177 161 158 163 167 163 142 119 93 147 174 166 154 166 160 165 147 176 196 160 164
316 319 324 319 313 316 309 301 293 294 289 287 285 281 276 275 272 265 263 258 185 176 173 169 165 168 169 174 165 140 152 142 188 173 159 169 168 163 165 185 190 175 161
308 317 313 307 307 312 307 297 294 288 285 285 285 285 286 286 283 285 277 266 246 166 168 165 175 184 178 184 176 161 152 183 145 164 183 175 170 178 172 175 197 173 163
304 306 297 304 303 308 307 297 294 290 289 285 287 285 285 280 273 278 271 269 280 174 177 174 181 192 181 181 183 197 179 143 172 153 163 167 181 182 183 171 191 186 182
296 290 295 292 297 301 299 294 294 286 283 287 283 285 276 274 275 279 270 270 258 198 172 175 186 192 185 181 186 183 168 165 169 164 165 146 166 189 212 181 186 197 194
300 292 300 297 295 297 296 296 291 288 287 284 281 281 280 272 268 273 269 253 235 204 176 178 184 187 188 188 189 187 181 171 180 164 158 145 186 188 200 206 189 207 202